Torna al catalogo

KUIPER-00554

AttivoComunicazioniVLEO
NORAD 69619·PAYLOAD·🇺🇸 United States

Lanciato Jun 17, 2026 da Guiana Space Centre

Loading…

Prossimi Passaggi (prossime 24 ore)

TLE

AggiornatoSource: CelesTrak SupGP

Epoca: Sep 14, 2026, 22:07 UTC

1 69619C 26140AD  26257.92222222  .00002995  00000+0  80586-4 0  2571
2 69619  51.8787 324.3541 0010142 142.3471 256.5735 15.37214669    19

Traccia KUIPER-00554 in tempo reale con AllMySat

Download on the App Store